TimeIST,TemperatureF,Dew PointF,Humidity,Sea Level PressureIn,VisibilityMPH,Wind Direction,Wind SpeedMPH,Gust SpeedMPH,PrecipitationIn,Events,Conditions,WindDirDegrees,DateUTC
12:20 AM,84.2,80.6,89,29.59,2.5,WSW,5.8,-,N/A,,Haze,250,2013-08-24 18:50:00
12:50 AM,82.4,78.8,89,29.56,2.5,SW,4.6,-,N/A,,Haze,220,2013-08-24 19:20:00
1:20 AM,82.4,78.8,89,29.56,2.5,South,4.6,-,N/A,,Haze,170,2013-08-24 19:50:00
1:50 AM,82.4,78.8,89,29.56,2.5,SW,3.5,-,N/A,,Haze,220,2013-08-24 20:20:00
2:20 AM,82.4,78.8,89,29.56,2.5,SW,3.5,-,N/A,,Haze,220,2013-08-24 20:50:00
2:30 AM,83,80,86,29.59,1,Calm,Calm,,,,Haze,,2013-08-24 21:00:00
2:50 AM,82.4,78.8,89,29.53,2.5,Calm,Calm,-,N/A,,Haze,0,2013-08-24 21:20:00
3:20 AM,82.4,78.8,89,29.53,2.5,South,3.5,-,N/A,,Haze,170,2013-08-24 21:50:00
3:50 AM,82.4,78.8,89,29.53,2.5,Calm,Calm,-,N/A,,Haze,0,2013-08-24 22:20:00
4:20 AM,82.4,78.8,89,29.53,2.5,Calm,Calm,-,N/A,,Haze,0,2013-08-24 22:50:00
4:50 AM,82.4,78.8,89,29.53,2.5,Calm,Calm,-,N/A,,Haze,0,2013-08-24 23:20:00
5:20 AM,82.4,78.8,89,29.53,2.5,Calm,Calm,-,N/A,,Haze,0,2013-08-24 23:50:00
5:30 AM,81,79,91,29.56,1,Calm,Calm,,,,Haze,,2013-08-25 00:00:00
5:50 AM,80.6,77.0,89,29.53,2.2,Calm,Calm,-,N/A,,Haze,0,2013-08-25 00:20:00
6:20 AM,82.4,78.8,89,29.53,1.9,Calm,Calm,-,N/A,,Scattered Clouds,0,2013-08-25 00:50:00
6:50 AM,84.2,80.6,89,29.56,1.9,WSW,3.5,-,N/A,,Scattered Clouds,250,2013-08-25 01:20:00
7:20 AM,86.0,80.6,84,29.56,1.9,Calm,Calm,-,N/A,,Haze,0,2013-08-25 01:50:00
7:50 AM,86.0,80.6,84,29.59,1.9,West,3.5,-,N/A,,Haze,260,2013-08-25 02:20:00
8:20 AM,87.8,80.6,79,29.56,1.9,West,4.6,-,N/A,,Haze,260,2013-08-25 02:50:00
8:50 AM,87.8,80.6,79,29.59,1.9,West,4.6,-,N/A,,Haze,280,2013-08-25 03:20:00
9:20 AM,89.6,80.6,75,29.56,1.9,West,4.6,-,N/A,,Haze,280,2013-08-25 03:50:00
9:50 AM,89.6,80.6,75,29.56,1.9,West,4.6,-,N/A,,Haze,260,2013-08-25 04:20:00
10:20 AM,91.4,78.8,66,29.56,1.9,West,4.6,-,N/A,,Haze,280,2013-08-25 04:50:00
10:50 AM,91.4,80.6,71,29.53,-9999.0,NW,3.5,-,N/A,,Haze,320,2013-08-25 05:20:00
11:20 AM,91.4,78.8,66,29.53,-9999.0,NNW,3.5,-,N/A,,Haze,330,2013-08-25 05:50:00
11:30 AM,95,80,53,29.57,1,SW,2.3,,,,Haze,230,2013-08-25 06:00:00
11:50 AM,91.4,78.8,66,29.53,-9999.0,WNW,3.5,-,N/A,,Haze,300,2013-08-25 06:20:00
12:20 PM,93.2,78.8,63,29.53,-9999.0,West,4.6,-,N/A,,Haze,270,2013-08-25 06:50:00
12:50 PM,93.2,78.8,63,29.53,-9999.0,WSW,4.6,-,N/A,,Haze,250,2013-08-25 07:20:00
1:20 PM,93.2,78.8,63,29.50,-9999.0,SSW,4.6,-,N/A,,Haze,210,2013-08-25 07:50:00
1:50 PM,93.2,78.8,63,29.50,-9999.0,NW,3.5,-,N/A,,Haze,310,2013-08-25 08:20:00
2:20 PM,93.2,78.8,63,29.47,-9999.0,WNW,3.5,-,N/A,,Haze,290,2013-08-25 08:50:00
2:30 PM,97,79,48,29.50,1,Calm,Calm,,,,Haze,,2013-08-25 09:00:00
2:50 PM,95.0,78.8,59,29.44,-9999.0,SSE,4.6,-,N/A,,Haze,160,2013-08-25 09:20:00
3:20 PM,93.2,80.6,67,29.44,1.9,South,8.1,-,N/A,Rain,Light Rain,190,2013-08-25 09:50:00
3:50 PM,86.0,80.6,84,29.44,1.6,West,11.5,-,N/A,Rain-Thunderstorm,Light Thunderstorms and Rain,280,2013-08-25 10:20:00
4:20 PM,84.2,80.6,89,29.44,1.7,West,6.9,-,N/A,Rain-Thunderstorm,Light Thunderstorms and Rain,280,2013-08-25 10:50:00
4:50 PM,84.2,80.6,89,29.47,1.7,North,4.6,-,N/A,Rain-Thunderstorm,Light Thunderstorms and Rain,10,2013-08-25 11:20:00
5:20 PM,84.2,80.6,89,29.47,1.7,ENE,6.9,-,N/A,Thunderstorm,Thunderstorm,70,2013-08-25 11:50:00
5:30 PM,85,82,86,29.49,1,ENE,2.3,,,Thunderstorm,Thunderstorm,70,2013-08-25 12:00:00
5:50 PM,84.2,80.6,89,29.47,1.7,ENE,8.1,-,N/A,Thunderstorm,Thunderstorm,60,2013-08-25 12:20:00
6:20 PM,82.4,78.8,89,29.47,-9999.0,SSE,4.6,-,N/A,,Haze,150,2013-08-25 12:50:00
6:50 PM,82.4,78.8,89,29.47,-9999.0,SSE,4.6,-,N/A,,Haze,160,2013-08-25 13:20:00
7:20 PM,82.4,78.8,89,29.50,-9999.0,South,4.6,-,N/A,,Haze,180,2013-08-25 13:50:00
7:50 PM,84.2,78.8,84,29.50,-9999.0,SSE,3.5,-,N/A,,Haze,160,2013-08-25 14:20:00
8:20 PM,84.2,78.8,84,29.53,-9999.0,South,4.6,-,N/A,,Haze,190,2013-08-25 14:50:00
8:30 PM,83,80,88,29.56,1,Calm,Calm,,,,Haze,,2013-08-25 15:00:00
8:50 PM,84.2,78.8,84,29.53,-9999.0,SW,4.6,-,N/A,,Haze,220,2013-08-25 15:20:00
9:20 PM,84.2,80.6,89,29.53,-9999.0,Calm,Calm,-,N/A,,Haze,0,2013-08-25 15:50:00
9:50 PM,84.2,80.6,89,29.53,-9999.0,Calm,Calm,-,N/A,,Haze,0,2013-08-25 16:20:00
10:20 PM,84.2,80.6,89,29.53,-9999.0,Calm,Calm,-,N/A,,Haze,0,2013-08-25 16:50:00
10:50 PM,84.2,80.6,89,29.53,-9999.0,Calm,Calm,-,N/A,,Haze,0,2013-08-25 17:20:00
11:20 PM,84.2,80.6,89,29.53,-9999.0,Calm,Calm,-,N/A,,Haze,0,2013-08-25 17:50:00
11:30 PM,84,82,91,29.56,1,Calm,Calm,,,,Haze,,2013-08-25 18:00:00
11:50 PM,84.2,80.6,89,29.53,-9999.0,South,4.6,-,N/A,,Haze,190,2013-08-25 18:20:00